Location: Hamilton
(37.7830°S, 175.2830°E)
Time: 04:24:20
(UTC+13:00)

Cosmos 2322 Rocket - Pass Details

Date: 24 January 2019
Orbit: 834 x 849 km, 71.0° (Epoch: 18 February)

Event Time Altitude Azimuth Distance (km) Brightness Sun altitude
Rises 22:56:35 0° 309° (NW) 3,391 5.4 -22.4°
Reaches altitude 10° 22:59:20 10° 298° (WNW) 2,466 4.7 -22.8°
Maximum altitude 23:04:12 29° 238° (WSW) 1,522 4.1 -23.4°
Drops below altitude 10° 23:09:09 10° 179° (S) 2,499 5.3 -24.0°
Sets 23:11:58 0° 167° (SSE) 3,443 6.0 -24.3°
